Hourly Data Report for August 09, 2006

TORONTO CITY
ONTARIO

43°40'00.000" N
79°24'00.000" W
112.50 m
6158355
71508
XTO

Download Data

Hourly Data (August 2006)
Hourly Data Report for August 9, 2006
TIME
LST
Temp Definition
°C
Dew Point Definition
°C
Rel Hum Definition
%
Precip. Amount Definition
mm

Wind Dir Definition
10's deg

Wind Spd Definition
km/h
Visibility Definition
km
Stn Press Definition
kPa
Hmdx Definition


Wind Chill Definition


Weather Definition


00:00 18.9 12.8 68   LegendMM LegendMM   100.79     LegendNANA
01:00 18.6 13.0 70   LegendMM LegendMM   100.77     LegendNANA
02:00 18.1 13.0 72   LegendMM LegendMM   100.76     LegendNANA
03:00 17.6 12.9 74   LegendMM LegendMM   100.73     LegendNANA
04:00 16.9 12.8 77   LegendMM LegendMM   100.73     LegendNANA
05:00 15.6 12.5 82   LegendMM LegendMM   100.74     LegendNANA
06:00 15.4 12.6 83   LegendMM LegendMM   100.72     LegendNANA
07:00 17.9 14.1 78   LegendMM LegendMM   100.73     LegendNANA
08:00 20.4 13.3 64   LegendMM LegendMM   100.72     LegendNANA
09:00 21.8 13.9 61   LegendMM LegendMM   100.70 25   LegendNANA
10:00 22.1 14.3 61   LegendMM LegendMM   100.67 26   LegendNANA
11:00 23.3 15.3 61   LegendMM LegendMM   100.60 27   LegendNANA
12:00 24.3 15.0 56   LegendMM LegendMM   100.52 28   LegendNANA
13:00 25.1 14.4 51   LegendMM LegendMM   100.44 29   LegendNANA
14:00 26.0 13.6 46   LegendMM LegendMM   100.38 29   LegendNANA
15:00 25.6 14.1 49   LegendMM LegendMM   100.31 29   LegendNANA
16:00 25.0 13.2 48   LegendMM LegendMM   100.23 28   LegendNANA
17:00 24.5 13.1 49   LegendMM LegendMM   100.18 27   LegendNANA
18:00 23.8 12.0 48   LegendMM LegendMM   100.12 26   LegendNANA
19:00 23.3 9.7 42   LegendMM LegendMM   100.09     LegendNANA
20:00 22.4 9.9 45   LegendMM LegendMM   100.06     LegendNANA
21:00 22.0 11.5 51   LegendMM LegendMM   100.07     LegendNANA
22:00 21.0 12.8 59   LegendMM LegendMM   100.03     LegendNANA
23:00 21.8 14.1 62   LegendMM LegendMM   100.02 25   LegendNANA

Notes on Data Quality.

Legend

  • E = Estimated
  • M = Missing
  • NA = Not Available*
  • [empty] = Indicates an unobserved value
Date modified: